Weather History for KBKD - June, 2013

Change the Weather History Date:

Tuesday, June 18, 2013

  Actual Average (KABI) Record (KABI)
Temperature  
Mean Temperature 80 °F 80 °F  
Max Temperature 91 °F 91 °F 107 °F (2011)
Min Temperature 70 °F 69 °F 52 °F (1912)
Degree Days  
Heating Degree Days 0 0  
Month to date heating degree days 0  
Since 1 June heating degree days 0  
Since 1 July heating degree days 2558  
Cooling Degree Days 16 15  
Month to date cooling degree days 244  
Year to date cooling degree days 641  
Since 1 June cooling degree days 244  
Growing Degree Days 30 (Base 50)    
Moisture  
Dew Point 63 °F    
Average Humidity 56    
Maximum Humidity 79    
Minimum Humidity 34    
Precipitation  
Precipitation 0.00 in 0.11 in 3.76 in (1926)
Month to date precipitation 2.41  
Year to date precipitation 11.35  
Sea Level Pressure  
Sea Level Pressure 29.98 in    
Wind  
Wind Speed 8 mph (NNE)    
Max Wind Speed 22 mph    
Max Gust Speed 33 mph    
Visibility 10 miles    
Events Thunderstorm    
T = Trace of Precipitation, MM = Missing Value Source: NWS Daily Summary

Daily Weather History Graph

Daily Weather History Graph

Search for Another Location

Airport or City:

Trip Planner

Search our weather history database for the weather conditions in past years. The results will help you decide how hot, cold, wet, or windy it might be!

Date:

Astronomy

Jun. 18, 2013 Rise Set
Actual Time 6:27 AM CDT 8:46 PM CDT
Civil Twilight 5:59 AM CDT 9:14 PM CDT
Nautical Twilight 5:23 AM CDT 9:49 PM CDT
Astronomical Twilight 4:45 AM CDT 10:27 PM CDT
Moon 3:44 PM CDT (6/18) 2:22 AM CDT (6/18)
Length of Visible Light 15h 15m
Length of Day
14h 18m
Waxing Gibbous, 71% of the Moon is Illuminated
Jun 18
Waxing Gibbous
Jun 23
Full
Jun 29
Last Quarter
Jul 8
New
Jul 15
First Quarter

Hourly Weather History & Observations

Time (CDT) Temp. Heat Index Dew Point Humidity Pressure Visibility Wind Dir Wind Speed Gust Speed Precip Events Conditions
12:15 AM 80.4 °F 83.6 °F 69.8 °F 70% 29.99 in 10.0 mi West 4.6 mph - N/A   Scattered Clouds
12:35 AM 80.2 °F 83.5 °F 70.0 °F 71% 29.98 in 10.0 mi WNW 5.8 mph - N/A   Scattered Clouds
12:55 AM 80.1 °F 83.2 °F 69.8 °F 71% 29.98 in 10.0 mi Calm Calm - N/A   Scattered Clouds
1:15 AM 80.4 °F 83.6 °F 69.8 °F 70% 29.96 in 10.0 mi WSW 8.1 mph - N/A   Mostly Cloudy
1:35 AM 78.4 °F - 63.0 °F 59% 29.99 in 10.0 mi West 20.7 mph 32.2 mph N/A Thunderstorm Mostly Cloudy
1:55 AM 77.2 °F - 63.1 °F 62% 29.98 in 10.0 mi West 21.9 mph 28.8 mph N/A Thunderstorm Scattered Clouds
2:15 AM 76.5 °F - 62.4 °F 62% 30.03 in 10.0 mi NW 18.4 mph 33.4 mph N/A   Clear
2:35 AM 74.7 °F - 63.9 °F 69% 30.08 in 10.0 mi NW 16.1 mph 32.2 mph N/A   Scattered Clouds
2:55 AM 73.6 °F - 65.7 °F 76% 30.07 in 10.0 mi North 15.0 mph 20.7 mph N/A   Overcast
3:15 AM 71.8 °F - 64.0 °F 77% 30.05 in 10.0 mi North 11.5 mph - N/A   Mostly Cloudy
3:35 AM 71.8 °F - 61.5 °F 70% 30.00 in 10.0 mi North 15.0 mph - N/A Thunderstorm Clear
3:55 AM 71.8 °F - 62.8 °F 73% 29.97 in 10.0 mi North 11.5 mph 19.6 mph N/A   Scattered Clouds
4:15 AM 71.8 °F - 63.5 °F 75% 29.95 in 10.0 mi NNE 4.6 mph - N/A   Scattered Clouds
4:35 AM 71.6 °F - 63.7 °F 76% 29.96 in 10.0 mi NNW 4.6 mph - N/A   Clear
4:55 AM 71.2 °F - 64.0 °F 78% 29.94 in 10.0 mi West 4.6 mph - N/A   Mostly Cloudy
5:15 AM 71.6 °F - 64.6 °F 78% 29.93 in 10.0 mi South 8.1 mph - N/A   Overcast
5:35 AM 71.6 °F - 63.7 °F 76% 29.93 in 10.0 mi South 8.1 mph - N/A   Mostly Cloudy
5:55 AM 72.0 °F - 63.1 °F 74% 29.93 in 10.0 mi SE 9.2 mph - N/A   Mostly Cloudy
6:15 AM 71.6 °F - 62.8 °F 74% 29.97 in 10.0 mi WNW 3.5 mph - N/A   Mostly Cloudy
6:35 AM 72.1 °F - 63.5 °F 74% 30.00 in 10.0 mi NNE 8.1 mph - N/A   Overcast
6:55 AM 71.8 °F - 64.0 °F 77% 30.02 in 10.0 mi NE 10.4 mph - N/A   Overcast
7:15 AM 70.7 °F - 63.9 °F 79% 30.03 in 10.0 mi Calm Calm - N/A   Overcast
7:35 AM 70.9 °F - 64.0 °F 79% 30.02 in 10.0 mi East 3.5 mph - N/A   Overcast
7:55 AM 71.2 °F - 64.0 °F 78% 30.02 in 10.0 mi SE 4.6 mph - N/A   Overcast
8:15 AM 72.9 °F - 63.7 °F 73% 30.03 in 10.0 mi WNW 3.5 mph - N/A   Scattered Clouds
8:35 AM 73.8 °F - 63.7 °F 71% 30.03 in 10.0 mi WSW 3.5 mph - N/A   Scattered Clouds
8:55 AM 75.4 °F - 63.7 °F 67% 30.03 in 10.0 mi West 3.5 mph - N/A   Mostly Cloudy
9:15 AM 76.1 °F - 64.2 °F 67% 30.04 in 10.0 mi WNW 6.9 mph - N/A   Scattered Clouds
9:35 AM 76.1 °F - 63.7 °F 65% 30.05 in 10.0 mi West 6.9 mph - N/A   Clear
9:55 AM 76.6 °F - 64.4 °F 66% 30.06 in 10.0 mi NNW 5.8 mph - N/A   Clear
10:15 AM 79.0 °F - 64.4 °F 61% 30.05 in 10.0 mi North 3.5 mph - N/A   Clear
10:35 AM 80.2 °F 82.0 °F 64.6 °F 59% 30.04 in 10.0 mi NE 4.6 mph - N/A   Clear
10:55 AM 81.0 °F 82.6 °F 64.6 °F 57% 30.04 in 10.0 mi NNW 4.6 mph - N/A   Clear
11:15 AM 82.0 °F 83.4 °F 63.9 °F 54% 30.04 in 10.0 mi NNE 6.9 mph - N/A   Clear
11:35 AM 82.4 °F 83.9 °F 64.4 °F 54% 30.03 in 10.0 mi North 3.5 mph - N/A   Clear
11:55 AM 83.8 °F 85.1 °F 63.7 °F 51% 30.03 in 10.0 mi North 6.9 mph - N/A   Clear
12:15 PM 86.0 °F 86.6 °F 62.4 °F 45% 30.03 in 10.0 mi NNW 3.5 mph - N/A   Clear
12:35 PM 86.5 °F 86.8 °F 61.5 °F 43% 30.03 in 10.0 mi ENE 4.6 mph - N/A   Clear
12:55 PM 86.2 °F 86.3 °F 61.2 °F 43% 30.02 in 10.0 mi NE 9.2 mph - N/A   Scattered Clouds
1:15 PM 87.8 °F 88.2 °F 61.9 °F 42% 30.02 in 10.0 mi East 4.6 mph - N/A   Scattered Clouds
1:35 PM 88.3 °F 88.4 °F 61.5 °F 40% 30.01 in 10.0 mi North 5.8 mph - N/A   Scattered Clouds
1:55 PM 88.9 °F 88.8 °F 60.6 °F 39% 30.00 in 10.0 mi North 4.6 mph - N/A   Scattered Clouds
2:15 PM 90.0 °F 91.0 °F 63.1 °F 41% 30.00 in 10.0 mi ENE 9.2 mph - N/A   Scattered Clouds
2:35 PM 88.9 °F 89.4 °F 62.1 °F 41% 29.99 in 10.0 mi East 8.1 mph - N/A   Scattered Clouds
2:55 PM 89.8 °F 89.1 °F 59.4 °F 36% 29.99 in 10.0 mi NW 8.1 mph - N/A   Scattered Clouds
3:15 PM 90.1 °F 89.9 °F 60.4 °F 37% 29.98 in 10.0 mi North 4.6 mph - N/A   Scattered Clouds
3:35 PM 90.5 °F 89.5 °F 58.5 °F 34% 29.97 in 10.0 mi ENE 8.1 mph - N/A   Clear
3:55 PM 89.2 °F 88.4 °F 59.2 °F 36% 29.97 in 10.0 mi NE 8.1 mph - N/A   Scattered Clouds
4:15 PM 90.0 °F 89.7 °F 60.1 °F 37% 29.96 in 10.0 mi Calm Calm - N/A   Scattered Clouds
4:35 PM 88.7 °F 88.0 °F 59.4 °F 37% 29.96 in 10.0 mi NNE 4.6 mph - N/A   Scattered Clouds
4:55 PM 91.2 °F 90.8 °F 59.9 °F 35% 29.95 in 10.0 mi NE 10.4 mph - N/A   Scattered Clouds
5:15 PM 90.3 °F 89.6 °F 59.2 °F 35% 29.94 in 10.0 mi North 6.9 mph - N/A   Clear
5:35 PM 88.7 °F 88.3 °F 60.1 °F 38% 29.94 in 10.0 mi North 3.5 mph - N/A   Clear
5:55 PM 88.9 °F 88.0 °F 58.8 °F 36% 29.93 in 10.0 mi NE 5.8 mph - N/A   Clear
6:15 PM 88.7 °F 88.3 °F 59.9 °F 38% 29.93 in 10.0 mi North 8.1 mph - N/A   Clear
6:35 PM 90.5 °F 89.5 °F 58.6 °F 34% 29.93 in 10.0 mi NNE 4.6 mph - N/A   Clear
6:55 PM 90.5 °F 90.1 °F 60.4 °F 36% 29.93 in 10.0 mi NE 11.5 mph - N/A   Clear
7:15 PM 89.6 °F 89.2 °F 60.3 °F 37% 29.93 in 10.0 mi NNE 9.2 mph - N/A   Clear
7:35 PM 88.9 °F 88.5 °F 60.4 °F 38% 29.93 in 10.0 mi NE 8.1 mph - N/A   Clear
7:55 PM 88.3 °F 88.4 °F 61.3 °F 40% 29.93 in 10.0 mi ENE 8.1 mph - N/A   Clear
8:15 PM 87.1 °F 87.5 °F 62.1 °F 43% 29.93 in 10.0 mi East 8.1 mph - N/A   Clear
8:35 PM 86.0 °F 86.6 °F 62.4 °F 45% 29.93 in 10.0 mi East 8.1 mph - N/A   Clear
8:55 PM 84.4 °F 85.2 °F 62.6 °F 48% 29.93 in 10.0 mi East 8.1 mph - N/A   Clear
9:15 PM 83.3 °F 84.3 °F 62.8 °F 50% 29.93 in 10.0 mi East 6.9 mph - N/A   Clear
9:35 PM 82.6 °F 83.8 °F 63.1 °F 52% 29.94 in 10.0 mi East 5.8 mph - N/A   Clear
9:55 PM 81.5 °F 82.8 °F 63.3 °F 54% 29.94 in 10.0 mi East 5.8 mph - N/A   Clear
10:15 PM 81.1 °F 82.3 °F 62.6 °F 53% 29.95 in 10.0 mi East 9.2 mph - N/A   Clear
10:35 PM 80.6 °F 82.0 °F 63.5 °F 56% 29.96 in 10.0 mi ESE 10.4 mph - N/A   Clear
10:55 PM 80.1 °F 81.8 °F 64.4 °F 59% 29.96 in 10.0 mi ESE 9.2 mph - N/A   Clear
11:15 PM 79.5 °F - 64.6 °F 60% 29.97 in 10.0 mi ESE 10.4 mph - N/A   Clear
11:35 PM 78.8 °F - 64.8 °F 62% 29.97 in 10.0 mi ESE 6.9 mph - N/A   Clear
11:55 PM 78.3 °F - 64.9 °F 63% 29.98 in 10.0 mi ESE 8.1 mph - N/A   Clear